Location: Chervonnoye
(48.6000°N, 34.4000°E)
Time: 19:25:59
(UTC+00:00)

RS-44 - Pass Details

Date: 05 December 2021
Orbit: 1175 x 1510 km, 82.5° (Epoch: 19 January)

Event Time Altitude Azimuth Distance (km) Brightness Sun altitude
Rises 18:33:53 0° 227° (SW) 4,089 ? -46.1°
Reaches altitude 10° 18:37:02 10° 239° (WSW) 3,108 ? -46.5°
Enters shadow 18:40:34 23° 265° (W) 2,272 ? -47.1°
Exits shadow 18:50:25 - 360° (N) 3,528 ? -48.6°
Sets 18:52:17 0° 6° (N) 4,117 ? -48.9°
